Alamogordo, NM

10:23 PM MDT on July 22, 2017 (GMT -0600)
Alamogordo-White Sands Regional

Weather History for KALM - November, 2011

Change the Weather History Date:

Saturday, November 26, 2011

  Actual Average Record
Temperature  
Mean Temperature 46 °F -  
Max Temperature 55 °F 60 °F 75 °F (1977)
Min Temperature 37 °F 33 °F 16 °F (1980)
Degree Days  
Heating Degree Days 19    
Moisture  
Dew Point 23 °F    
Average Humidity 40    
Maximum Humidity 75    
Minimum Humidity 26    
Precipitation  
Precipitation 0.00 in - - ()
Sea Level Pressure  
Sea Level Pressure 30.27 in    
Wind  
Wind Speed 12 mph (North)    
Max Wind Speed 22 mph    
Max Gust Speed 32 mph    
Visibility 10 miles    
Events      
Averages and records for this station are not official NWS values.
T = Trace of Precipitation, MM = Missing Value Source: NWS Daily Summary

Daily Weather History Graph

Daily Weather History Graph

Search for Another Location

Airport or City:

Trip Planner

Search our weather history database for the weather conditions in past years. The results will help you decide how hot, cold, wet, or windy it might be!

Date:

Astronomy

Nov. 26, 2011 Rise Set
Actual Time 6:43 AM MST 4:58 PM MST
Civil Twilight 6:17 AM MST 5:24 PM MST
Nautical Twilight 5:47 AM MST 5:55 PM MST
Astronomical Twilight 5:17 AM MST 6:24 PM MST
Moon 8:14 AM MST (11/26) 6:35 PM MST (11/26)
Length of Visible Light 11h 07m
Length of Day
10h 14m
Waxing Crescent, 3% of the Moon is Illuminated
Nov 26
Waxing Crescent
Dec 2
First Quarter
Dec 10
Full
Dec 17
Last Quarter
Dec 24
New

Hourly Weather History & Observations

Time (MST) Temp. Windchill Dew Point Humidity Pressure Visibility Wind Dir Wind Speed Gust Speed Precip Events Conditions
12:35 AM 39.2 °F 33.0 °F 32.0 °F 75% 30.04 in 10.0 mi NE 9.2 mph - N/A   Clear
12:55 AM 41.0 °F 36.4 °F 32.0 °F 70% 30.05 in 10.0 mi NNE 6.9 mph - N/A   Clear
1:15 AM 41.0 °F 35.2 °F 32.0 °F 70% 30.05 in 10.0 mi NE 9.2 mph - N/A   Clear
1:35 AM 41.0 °F 35.2 °F 32.0 °F 70% 30.06 in 10.0 mi North 9.2 mph - N/A   Clear
1:55 AM 46.4 °F 40.7 °F 26.6 °F 46% 30.06 in 10.0 mi NNE 12.7 mph - N/A   Clear
2:15 AM 44.6 °F 38.4 °F 26.6 °F 49% 30.07 in 10.0 mi NNE 12.7 mph - N/A   Clear
2:35 AM 44.6 °F 39.7 °F 26.6 °F 49% 30.08 in 10.0 mi North 9.2 mph - N/A   Clear
2:55 AM 44.6 °F 39.7 °F 24.8 °F 46% 30.08 in 10.0 mi North 9.2 mph - N/A   Clear
3:15 AM 41.0 °F 35.2 °F 26.6 °F 57% 30.08 in 10.0 mi North 9.2 mph - N/A   Clear
3:35 AM 42.8 °F 37.0 °F 26.6 °F 53% 30.09 in 10.0 mi NNE 10.4 mph - N/A   Clear
3:55 AM 44.6 °F 38.8 °F 24.8 °F 46% 30.10 in 10.0 mi NNE 11.5 mph - N/A   Clear
4:15 AM 44.6 °F 38.1 °F 23.0 °F 43% 30.11 in 10.0 mi NNE 13.8 mph 18.4 mph N/A   Clear
4:35 AM 46.4 °F 39.0 °F 19.4 °F 34% 30.11 in 10.0 mi NNE 19.6 mph 29.9 mph N/A   Clear
4:55 AM 46.4 °F 41.9 °F 23.0 °F 40% 30.13 in 10.0 mi NNE 9.2 mph - N/A   Clear
5:15 AM 46.4 °F 40.4 °F 23.0 °F 40% 30.14 in 10.0 mi NNE 13.8 mph 26.5 mph N/A   Clear
5:55 AM 48.2 °F - 19.4 °F 32% 30.17 in 10.0 mi North 17.3 mph 32.2 mph N/A   Clear
6:15 AM 46.4 °F 39.8 °F 19.4 °F 34% 30.19 in 10.0 mi North 16.1 mph - N/A   Clear
6:35 AM 44.6 °F 38.4 °F 23.0 °F 43% 30.21 in 10.0 mi NNE 12.7 mph - N/A   Clear
7:15 AM 46.4 °F 40.1 °F 19.4 °F 34% 30.24 in 10.0 mi North 15.0 mph - N/A   Clear
7:35 AM 46.4 °F 40.1 °F 21.2 °F 37% 30.24 in 10.0 mi North 15.0 mph - N/A   Clear
7:55 AM 46.4 °F 41.1 °F 21.2 °F 37% 30.25 in 10.0 mi North 11.5 mph - N/A   Clear
8:15 AM 48.2 °F - 19.4 °F 32% 30.25 in 10.0 mi North 17.3 mph - N/A   Clear
8:35 AM 48.2 °F - 19.4 °F 32% 30.27 in 10.0 mi North 16.1 mph 19.6 mph N/A   Clear
9:15 AM 50.0 °F - 23.0 °F 35% 30.29 in 10.0 mi NNW 17.3 mph 20.7 mph N/A   Clear
9:35 AM 50.0 °F - 23.0 °F 35% 30.30 in 10.0 mi NW 17.3 mph 21.9 mph N/A   Clear
9:55 AM 50.0 °F - 23.0 °F 35% 30.31 in 10.0 mi NNW 19.6 mph 26.5 mph N/A   Clear
10:15 AM 51.8 °F - 23.0 °F 33% 30.31 in 10.0 mi NNW 21.9 mph 26.5 mph N/A   Clear
10:35 AM 51.8 °F - 23.0 °F 33% 30.32 in 10.0 mi NNW 21.9 mph 28.8 mph N/A   Clear
10:55 AM 53.6 °F - 24.8 °F 33% 30.32 in 10.0 mi NW 21.9 mph 28.8 mph N/A   Clear
11:15 AM 53.6 °F - 24.8 °F 33% 30.33 in 10.0 mi NNW 21.9 mph 27.6 mph N/A   Clear
11:35 AM 53.6 °F - 26.6 °F 35% 30.33 in 10.0 mi NNW 17.3 mph 24.2 mph N/A   Clear
11:55 AM 55.4 °F - 26.6 °F 33% 30.33 in 10.0 mi NNW 15.0 mph - N/A   Clear
12:15 PM 55.4 °F - 24.8 °F 31% 30.33 in 10.0 mi North 15.0 mph 21.9 mph N/A   Clear
12:35 PM 55.4 °F - 24.8 °F 31% 30.34 in 10.0 mi North 18.4 mph 24.2 mph N/A   Clear
12:55 PM 53.6 °F - 24.8 °F 33% 30.34 in 10.0 mi North 12.7 mph 18.4 mph N/A   Clear
1:15 PM 53.6 °F - 24.8 °F 33% 30.34 in 10.0 mi NNW 18.4 mph 21.9 mph N/A   Clear
1:35 PM 53.6 °F - 23.0 °F 30% 30.35 in 10.0 mi NNW 17.3 mph 23.0 mph N/A   Clear
2:15 PM 53.6 °F - 23.0 °F 30% 30.35 in 10.0 mi NW 12.7 mph 20.7 mph N/A   Clear
2:55 PM 53.6 °F - 19.4 °F 26% 30.35 in 10.0 mi NW 17.3 mph - N/A   Clear
3:15 PM 53.6 °F - 19.4 °F 26% 30.35 in 10.0 mi NW 16.1 mph 23.0 mph N/A   Clear
3:35 PM 51.8 °F - 19.4 °F 28% 30.36 in 10.0 mi NNW 16.1 mph - N/A   Clear
3:55 PM 51.8 °F - 17.6 °F 26% 30.37 in 10.0 mi NNW 16.1 mph 21.9 mph N/A   Clear
4:15 PM 50.0 °F - 19.4 °F 30% 30.37 in 10.0 mi NNW 10.4 mph - N/A   Clear
4:35 PM 50.0 °F - 17.6 °F 28% 30.38 in 10.0 mi NNW 10.4 mph 17.3 mph N/A   Clear
4:55 PM 48.2 °F - 19.4 °F 32% 30.39 in 10.0 mi NNW 9.2 mph - N/A   Clear
5:15 PM 46.4 °F 40.7 °F 19.4 °F 34% 30.40 in 10.0 mi NNW 12.7 mph 17.3 mph N/A   Clear
5:35 PM 44.6 °F 39.7 °F 19.4 °F 37% 30.40 in 10.0 mi NNW 9.2 mph - N/A   Clear
5:55 PM 42.8 °F - 19.4 °F 39% 30.41 in 10.0 mi Calm Calm - N/A   Clear
6:15 PM 42.8 °F 39.3 °F 21.2 °F 42% 30.42 in 10.0 mi NW 5.8 mph - N/A   Clear
6:35 PM 41.0 °F 34.7 °F 21.2 °F 45% 30.43 in 10.0 mi NNW 10.4 mph - N/A   Clear
6:55 PM 39.2 °F 32.5 °F 23.0 °F 52% 30.43 in 10.0 mi NNW 10.4 mph - N/A   Clear
7:15 PM 39.2 °F 33.0 °F 23.0 °F 52% 30.44 in 10.0 mi North 9.2 mph - N/A   Clear
7:35 PM 37.4 °F 31.4 °F 23.0 °F 56% 30.45 in 10.0 mi North 8.1 mph - N/A   Clear
7:55 PM 37.4 °F 32.1 °F 23.0 °F 56% 30.46 in 10.0 mi North 6.9 mph - N/A   Clear
8:15 PM 37.4 °F 34.9 °F 23.0 °F 56% 30.47 in 10.0 mi East 3.5 mph - N/A   Clear
8:55 PM 35.6 °F 29.2 °F 23.0 °F 60% 30.48 in 10.0 mi SSE 8.1 mph - N/A   Clear
9:35 PM 32.0 °F 26.4 °F 23.0 °F 69% 30.49 in 10.0 mi South 5.8 mph - N/A   Clear
9:55 PM 32.0 °F 27.5 °F 23.0 °F 69% 30.50 in 10.0 mi South 4.6 mph - N/A   Clear
10:15 PM 32.0 °F 27.5 °F 21.2 °F 64% 30.50 in 10.0 mi South 4.6 mph - N/A   Clear
10:55 PM 32.0 °F 28.7 °F 23.0 °F 69% 30.51 in 10.0 mi SSE 3.5 mph - N/A   Clear
11:15 PM 32.0 °F - 21.2 °F 64% 30.51 in 10.0 mi Calm Calm - N/A   Clear
11:35 PM 32.0 °F - 21.2 °F 64% 30.51 in 10.0 mi Calm Calm - N/A   Clear